Theta_e
333 335 335 338 340 342 342 343 340 337 335 329 326 324 322 324 326 328 324 323 321 320 320 317 317 317 318 320 318 315 316 313 320 322 321 322 324 325 324 325 324 322 322
331 335 337 337 338 340 342 339 335 332 328 327 326 325 324 322 324 325 324 321 321 320 319 319 317 317 315 316 316 317 313 313 317 318 319 312 315 319 319 322 322 323 323
327 333 337 338 339 338 338 332 327 329 325 323 323 321 321 319 319 318 318 320 320 320 321 320 318 318 317 314 317 316 315 310 312 314 316 312 308 313 314 315 316 316 320
328 333 336 337 335 333 333 332 333 328 329 324 323 321 318 316 319 319 317 319 321 320 319 319 318 317 315 316 315 315 314 315 309 310 311 313 312 307 305 311 313 314 316
331 331 334 332 333 333 334 334 336 333 330 325 325 322 322 322 319 316 317 318 319 319 317 319 319 317 314 316 316 315 315 314 312 311 310 311 310 312 307 304 308 312 314
331 330 331 335 336 339 339 339 337 334 330 326 324 325 324 320 317 318 315 315 316 317 319 318 319 318 315 315 315 316 316 315 314 312 312 310 309 308 308 307 308 306 310
326 328 328 335 337 338 333 335 332 333 331 328 324 324 324 322 321 319 317 316 315 316 318 319 318 317 318 315 315 316 316 315 313 315 311 312 310 312 310 310 309 307 311
325 326 329 335 335 337 336 337 335 333 332 331 327 325 325 322 320 321 319 317 317 317 320 320 320 319 318 316 315 314 313 315 314 315 315 312 313 314 313 310 308 305 308
328 329 331 335 336 337 338 337 337 338 336 332 328 326 322 321 318 320 321 319 320 318 319 320 319 318 318 318 317 313 315 315 315 315 315 315 315 314 314 313 311 308 303
327 330 330 332 335 337 338 338 338 335 333 333 330 328 321 319 319 321 319 318 319 319 319 319 318 318 318 319 318 315 315 315 314 314 316 316 314 314 314 313 313 312 308
322 328 331 332 334 335 335 335 335 333 331 333 329 323 320 319 319 319 320 318 318 318 319 318 316 315 316 318 317 317 315 314 315 316 315 315 317 314 314 314 314 312 311
323 324 326 327 328 330 332 333 334 334 334 331 325 322 320 318 316 318 321 319 318 317 318 318 317 316 314 315 316 315 314 314 314 314 316 315 314 316 316 315 314 313 315
324 324 324 325 325 327 330 330 332 333 333 332 330 323 320 319 318 318 321 321 318 317 317 318 317 316 314 313 315 315 315 315 316 316 315 315 315 314 315 314 315 315 315
323 322 322 322 323 325 327 331 330 332 333 331 329 325 323 321 320 319 318 320 320 318 316 317 317 317 313 311 311 314 315 316 316 317 316 315 314 315 314 317 316 315 312
321 318 318 320 322 326 329 330 331 333 333 331 329 329 324 322 320 317 315 315 316 317 317 316 317 316 313 309 310 312 314 316 316 317 315 315 314 311 314 313 316 312 307
319 317 319 320 321 322 326 329 330 331 332 331 330 329 323 320 318 316 315 314 315 319 318 316 316 314 309 305 306 312 313 315 314 314 314 315 312 312 307 306 304 306 306
317 318 319 320 321 322 325 325 328 330 328 328 329 327 325 319 316 316 314 315 314 317 317 317 314 312 309 305 304 306 313 314 314 315 315 315 311 309 310 304 302 302 302
318 319 321 321 323 324 324 326 327 329 326 326 324 324 321 319 319 316 313 312 314 313 313 313 313 311 312 306 303 304 311 315 315 314 316 315 314 310 308 307 306 307 308
321 322 322 318 321 323 324 323 323 325 326 325 324 322 321 321 320 313 314 312 309 310 311 312 310 310 311 305 303 303 314 312 313 314 315 310 311 301 299 306 305 306 308
320 319 315 313 315 320 321 319 322 322 322 325 327 325 326 324 323 318 315 312 312 310 311 312 312 310 311 304 301 302 311 312 313 314 311 302 307 296 297 306 306 304 306
311 311 311 311 313 317 318 316 318 320 322 325 326 327 328 327 326 323 315 315 312 312 311 312 312 310 309 308 301 299 313 313 313 312 310 309 298 296 295 297 306 304 304
308 309 309 310 312 312 314 313 314 319 324 324 325 326 328 327 326 322 317 314 312 311 310 310 309 310 310 304 303 298 299 307 312 310 309 308 297 295 295 296 298 295 296
310 311 310 310 313 313 312 311 314 317 323 323 323 324 324 325 327 322 316 314 313 311 310 310 309 309 312 312 301 298 297 299 307 308 304 296 294 294 295 295 295 294 305
312 314 312 310 311 312 311 312 313 316 322 322 322 324 323 321 322 323 317 313 312 311 310 310 310 310 311 311 312 308 302 298 301 297 303 301 298 294 299 300 300 305 306
313 314 312 310 310 313 312 313 312 315 318 321 322 323 322 323 322 314 312 314 314 312 311 311 311 311 309 311 306 301 306 305 300 303 306 305 304 304 305 305 305 306 305
311 310 310 310 311 311 312 313 313 313 316 320 320 320 320 322 320 311 307 296 301 300 302 302 309 312 302 296 294 293 292 292 291 302 304 304 304 303 302 302 301 302 302
Wind_Speed
5 9 14 14 13 13 13 13 12 9 7 5 4 3 2 2 2 2 2 4 6 6 6 4 4 4 4 3 4 4 5 4 2 6 4 3 3 2 2 2 1 3 3
9 11 13 13 12 12 12 13 13 13 10 4 2 3 3 1 2 1 1 4 5 5 6 5 4 4 4 4 3 3 3 3 2 4 4 4 4 3 1 2 2 2 2
12 10 12 13 12 12 13 16 17 15 4 13 6 4 5 2 2 3 4 4 6 5 5 5 4 4 2 4 2 3 2 3 3 2 4 3 4 3 1 1 3 5 4
1 5 8 11 12 14 16 19 21 21 20 17 10 13 8 6 5 6 4 4 5 6 6 6 4 4 3 4 3 3 3 1 5 5 4 3 3 3 3 3 1 3 3
8 9 10 10 13 16 17 18 19 13 9 16 12 10 10 5 4 6 9 6 6 6 6 5 5 4 3 4 4 4 4 3 2 3 3 3 4 2 3 2 0 2 1
7 6 5 10 11 12 11 12 13 8 9 11 11 13 14 11 6 8 9 7 7 6 6 6 4 4 4 4 4 5 5 4 4 4 3 2 1 2 1 1 2 5 3
3 4 7 9 9 7 4 8 6 8 9 11 13 13 12 12 12 12 9 10 8 7 8 6 5 4 5 4 5 5 5 4 4 3 4 3 4 2 2 1 1 5 3
4 6 8 7 6 6 5 10 11 10 10 10 12 12 12 8 7 10 9 8 8 8 11 8 7 7 6 5 5 5 4 4 4 4 3 3 2 2 1 3 5 7 5
3 5 7 8 6 7 7 9 10 11 10 12 11 12 9 10 8 10 10 9 8 6 9 10 8 7 7 7 6 5 6 5 4 4 3 2 2 3 3 4 5 7 10
4 4 3 5 6 7 6 6 7 7 7 9 9 9 9 9 8 10 11 10 9 10 10 10 8 8 8 7 7 5 6 6 5 4 4 4 3 4 4 5 6 6 8
6 5 4 0 3 4 5 5 5 6 7 8 8 9 9 9 10 10 11 12 11 12 11 11 9 9 8 9 7 8 6 7 6 5 5 6 5 5 5 5 7 7 8
6 6 7 6 7 7 6 5 5 6 5 7 9 9 8 8 8 8 11 11 11 10 11 12 11 10 9 8 10 10 8 9 8 7 6 7 4 6 6 7 8 9 9
7 7 8 9 9 8 8 6 6 6 5 6 8 8 9 10 9 8 8 11 11 12 12 12 12 12 10 10 10 10 10 10 9 8 7 7 6 8 7 8 9 8 7
7 7 8 8 9 9 8 6 5 6 6 7 8 9 9 10 9 7 7 10 12 12 13 12 12 12 10 8 8 10 10 10 9 8 8 6 7 7 8 7 7 5 5
7 7 8 8 10 11 10 10 8 5 5 7 8 9 9 9 8 8 7 7 8 9 11 11 12 10 7 4 6 10 11 10 9 8 7 7 6 6 7 6 2 3 5
7 7 8 10 11 12 12 11 12 10 6 7 9 7 7 8 9 7 7 7 8 11 12 12 12 7 2 3 10 11 10 10 8 8 7 6 6 5 5 4 1 4 4
6 7 8 9 8 10 10 10 11 10 7 7 7 6 8 8 8 9 8 10 9 9 9 10 9 7 6 7 12 12 10 9 9 8 6 6 3 7 6 5 4 3 1
5 5 6 6 7 9 10 9 9 9 7 6 7 4 5 8 7 8 8 8 6 6 5 5 5 4 4 7 10 14 13 9 9 8 8 5 7 7 7 5 4 3 3
4 3 4 5 6 8 8 8 9 9 9 7 5 5 6 8 7 9 10 8 9 9 9 7 8 8 7 6 9 12 11 8 10 9 7 5 8 9 7 5 5 5 3
3 4 4 4 5 6 7 8 8 8 9 9 7 5 6 8 10 10 9 7 8 9 9 11 11 10 7 5 6 12 6 9 7 6 6 8 6 9 8 6 5 6 5
1 2 2 4 5 5 6 7 6 8 7 8 7 6 6 8 9 9 7 9 9 10 11 10 8 6 6 4 9 16 8 8 6 6 5 5 9 7 7 7 6 5 5
3 2 4 3 3 2 3 6 6 7 7 8 8 8 8 7 6 8 8 10 11 12 12 10 7 6 5 7 11 15 12 6 5 4 4 3 5 7 7 7 7 5 6
5 5 5 7 5 3 3 6 6 6 6 7 8 8 9 9 8 7 7 7 8 6 7 8 7 6 5 6 12 7 7 8 5 3 2 3 2 2 7 11 7 7 7
7 9 7 8 10 3 4 6 7 6 6 7 7 7 7 7 8 6 4 5 6 7 8 8 7 5 4 7 5 5 6 5 4 5 4 2 2 4 5 3 6 7 5
10 9 9 10 10 9 8 7 5 5 7 7 7 7 6 7 6 1 2 5 7 9 9 7 7 7 7 8 7 8 7 6 4 5 3 4 5 5 4 4 5 5 6
10 9 11 11 12 10 11 10 6 6 8 8 7 5 5 6 5 2 2 10 0 11 10 11 8 8 3 11 12 8 6 7 9 4 3 3 3 4 4 5 6 6 4
Wind_Direction
150 179 196 198 191 179 169 165 150 145 143 120 117 120 121 72 31 313 144 134 127 125 113 97 94 86 94 100 126 116 87 94 165 163 143 114 110 99 38 48 62 70 37
193 179 178 186 185 173 155 144 126 103 81 51 122 144 162 152 134 236 217 143 137 135 111 112 95 72 99 102 133 133 128 86 166 238 191 185 166 166 9 315 290 309 286
241 197 169 171 159 150 141 120 113 114 136 154 169 122 102 78 138 175 197 171 152 132 118 100 90 97 88 91 93 96 133 140 107 234 296 192 247 181 167 59 329 315 275
324 142 152 156 141 141 140 145 152 164 188 180 182 167 155 190 182 183 177 169 162 148 136 118 122 92 80 96 97 114 105 146 113 120 72 45 2 236 208 172 12 325 284
102 135 154 142 149 158 164 167 169 186 187 161 172 183 175 203 158 167 161 164 155 161 151 141 127 115 106 105 102 121 130 119 93 103 134 88 91 97 277 247 215 200 59
78 104 141 167 177 182 181 187 174 190 172 164 164 196 177 170 159 180 169 171 170 164 162 146 154 137 134 162 131 111 104 90 94 99 113 120 89 80 49 302 274 311 298
96 150 185 196 197 202 171 211 178 186 184 173 180 184 184 187 188 179 181 170 175 172 169 167 181 188 180 171 158 149 137 130 133 140 115 115 98 104 81 315 324 301 310
167 204 218 216 233 211 263 212 207 198 194 188 191 189 183 186 184 190 183 185 183 181 166 173 201 199 199 177 166 166 145 130 151 151 127 134 128 208 270 320 311 302 267
153 210 235 238 264 260 272 245 231 234 213 197 194 196 181 183 176 184 194 182 177 178 180 171 197 202 212 199 185 191 180 184 181 165 179 231 222 250 269 272 282 300 306
103 129 203 251 272 278 286 256 251 245 214 214 207 201 184 178 177 189 193 188 184 185 184 181 189 207 220 215 211 194 189 200 192 212 204 241 251 257 258 268 273 268 285
73 79 94 143 291 295 295 280 249 231 217 213 210 189 184 172 183 198 196 194 187 187 188 188 185 200 217 218 217 232 203 212 207 215 235 255 256 273 277 274 274 277 272
57 60 53 36 20 357 333 313 297 277 249 209 194 186 179 176 187 193 202 198 194 193 196 191 183 198 212 223 220 224 221 216 219 232 248 254 258 268 271 275 284 288 291
77 54 39 29 28 26 6 324 296 284 268 231 203 193 186 189 193 192 202 207 201 200 195 201 189 195 204 214 226 227 229 223 226 234 236 253 262 272 288 290 298 297 298
87 60 44 29 18 18 16 1 310 270 253 233 215 207 209 205 200 195 189 203 202 196 202 200 200 201 196 204 229 228 231 228 227 231 241 252 267 276 287 296 306 289 288
94 66 51 34 29 25 16 2 346 309 263 246 235 227 202 199 200 189 193 190 194 211 211 200 211 209 207 202 223 232 234 229 229 237 246 249 255 281 288 285 304 275 298
109 90 62 48 37 26 18 9 356 337 306 268 263 259 209 187 194 193 188 183 197 214 206 198 207 181 173 303 250 238 230 233 233 244 244 239 225 196 150 143 239 346 326
106 78 62 50 39 35 26 16 5 356 334 292 280 265 223 198 195 199 191 206 203 205 207 202 192 168 149 237 268 254 249 245 239 243 234 241 184 200 181 171 174 166 218
108 81 61 50 35 37 31 18 16 10 357 332 301 270 207 216 206 203 198 205 206 184 171 167 146 157 203 234 260 261 251 247 242 234 238 246 208 190 192 204 214 244 248
121 89 48 38 31 28 17 16 20 18 8 356 314 267 227 232 211 195 206 188 166 177 165 169 161 191 214 228 273 268 239 225 234 233 224 211 211 163 191 217 266 275 279
142 119 79 55 36 16 4 4 10 11 10 358 341 293 263 251 241 226 198 195 191 182 176 194 188 184 202 217 266 240 228 226 228 217 225 228 208 167 175 230 267 289 326
123 55 42 22 19 4 352 357 349 4 348 344 342 321 292 266 258 237 196 191 187 190 190 198 186 162 177 203 235 243 236 236 219 222 212 201 182 191 193 223 257 292 326
320 340 321 325 333 346 330 336 351 334 335 339 335 334 317 295 270 231 203 196 195 197 193 175 165 164 164 203 238 235 228 219 225 227 212 168 165 207 205 213 236 217 247
287 278 283 296 299 315 306 314 328 322 315 330 337 336 328 313 291 246 211 206 201 192 166 160 163 174 181 212 224 213 220 197 193 215 86 81 205 221 235 230 217 208 235
262 283 280 285 295 274 286 278 308 319 305 311 323 323 329 323 314 280 209 188 180 174 164 164 163 169 173 216 210 192 198 152 201 174 179 119 320 299 305 201 197 235 247
287 285 290 280 273 285 275 273 300 313 305 299 304 313 316 316 306 328 283 194 185 177 166 162 168 173 205 214 181 187 191 181 175 182 198 225 239 265 264 245 257 258 246
276 275 272 269 265 269 282 293 295 312 301 291 293 301 308 308 300 210 228 25 336 146 145 154 187 190 192 143 161 173 149 136 162 206 242 272 271 293 323 314 314 295 258